This is the latest recevied weather packets stored in our database for station/object N3WMC. If no packets are shown the sender has not sent any weather packets the latest 10 day(s).
| Time | Temp. | Humidity | Pressure | Rain* | Wind** | Luminosity | Snow |
|---|---|---|---|---|---|---|---|
| 1787577366 | 15.56° C | 92% | 1017 hPa | 0 mm | - | 201 W/m² | - |
| 1787577062 | 15° C | 94% | 1017 hPa | 0 mm | - | 233 W/m² | - |
| 1787576758 | 14.44° C | 96% | 1017.1 hPa | 0 mm | - | 215 W/m² | - |
| 1787576453 | 14.44° C | 98% | 1017.1 hPa | 0 mm | - | 184 W/m² | - |
| 1787576149 | 13.89° C | 98% | 1017.2 hPa | 0 mm | - | 166 W/m² | - |
| 1787575844 | 13.89° C | 99% | 1017.1 hPa | 0 mm | - | 143 W/m² | - |
| 1787575539 | 13.89° C | 99% | 1017 hPa | 0 mm | - | 134 W/m² | - |
| 1787575234 | 13.89° C | 99% | 1017 hPa | 0 mm | - | 113 W/m² | - |
| 1787574929 | 13.89° C | 99% | 1016.9 hPa | 0 mm | - | 100 W/m² | - |
| 1787574625 | 13.89° C | 99% | 1016.8 hPa | 0 mm | - | 98 W/m² | - |
| 1787574320 | 13.89° C | 99% | 1016.8 hPa | 0 mm | - | 107 W/m² | - |
| 1787574018 | 13.89° C | 99% | 1016.9 hPa | 0 mm | - | 131 W/m² | - |
| 1787573714 | 13.33° C | 99% | 1016.8 hPa | 0 mm | - | 120 W/m² | - |
| 1787573408 | 13.33° C | 99% | 1016.9 hPa | 0 mm | - | 101 W/m² | - |
| 1787573105 | 13.33° C | 99% | 1016.9 hPa | 0 mm | - | 106 W/m² | - |
| 1787572801 | 13.33° C | 99% | 1017 hPa | 0 mm | - | 112 W/m² | - |
| 1787572495 | 13.33° C | 99% | 1016.9 hPa | 0 mm | - | 160 W/m² | - |
| 1787572190 | 12.78° C | 99% | 1017 hPa | 0 mm | - | 126 W/m² | - |
| 1787571889 | 12.22° C | 99% | 1016.8 hPa | 0 mm | - | 77 W/m² | - |
| 1787571579 | 12.22° C | 99% | 1016.8 hPa | 0 mm | - | 58 W/m² | - |
| 1787571277 | 12.22° C | 99% | 1016.7 hPa | 0 mm | - | 44 W/m² | - |
| 1787570968 | 11.67° C | 99% | 1016.6 hPa | 0 mm | - | 32 W/m² | - |
| 1787570664 | 12.22° C | 99% | 1016.5 hPa | 0 mm | - | 33 W/m² | - |
| 1787570360 | 11.67° C | 99% | 1016.6 hPa | 0 mm | - | 34 W/m² | - |
| 1787570056 | 11.67° C | 99% | 1016.4 hPa | 0 mm | - | 35 W/m² | - |
* Rain latest hour (hover to see other rain measurements)
** Current wind speed in m/s (hover to see current wind gust speed)